This is the latest recevied weather packets stored in our database for station/object KB8DOA. If no packets are shown the sender has not sent any weather packets the latest 10 day(s).
| Time | Temp. | Humidity | Pressure | Rain* | Wind** | Luminosity | Snow |
|---|---|---|---|---|---|---|---|
| 1777536304 | 22.78° C | 90% | 1012.7 hPa | 0 mm | - | 0 W/m² | - |
| 1777534504 | 22.78° C | 89% | 1012.9 hPa | 0 mm | - | 0 W/m² | - |
| 1777530304 | 23.33° C | 86% | 1013.5 hPa | 0 mm | - | 0 W/m² | - |
| 1777530003 | 23.33° C | 85% | 1013.5 hPa | 0 mm | - | 0 W/m² | - |
| 1777527604 | 24.44° C | 82% | 1013.1 hPa | 0 mm | - | 0 W/m² | - |
| 1777526704 | 24.44° C | 82% | 1013.4 hPa | 0 mm | - | 0 W/m² | - |
| 1777526404 | 24.44° C | 82% | 1013.5 hPa | 0 mm | - | 0 W/m² | - |
| 1777525204 | 25° C | 82% | 1013.6 hPa | 0 mm | - | 0 W/m² | - |
| 1777520704 | 24.44° C | 82% | 1014 hPa | 0 mm | - | 0 W/m² | - |
| 1777520404 | 24.44° C | 82% | 1014 hPa | 0 mm | - | 0 W/m² | - |
| 1777519203 | 25° C | 82% | 1014.3 hPa | 0 mm | - | 0 W/m² | - |
| 1777518904 | 25° C | 82% | 1014.3 hPa | 0 mm | - | 0 W/m² | - |
| 1777518004 | 25.56° C | 81% | 1014 hPa | 0 mm | - | 0 W/m² | - |
| 1777512903 | 25.56° C | 80% | 1013.6 hPa | 0 mm | - | 0 W/m² | - |
| 1777512304 | 25.56° C | 79% | 1013.5 hPa | 0 mm | - | 0 W/m² | - |
| 1777507204 | 26.11° C | 76% | 1011.9 hPa | 0 mm | - | 0 W/m² | - |
| 1777506303 | 26.11° C | 75% | 1011.5 hPa | 0 mm | - | 0 W/m² | - |
| 1777503904 | 26.67° C | 74% | 1010.3 hPa | 0 mm | - | 0 W/m² | - |
| 1777501204 | 26.67° C | 73% | 1010.8 hPa | 0 mm | - | 0 W/m² | - |
| 1777500603 | 26.67° C | 73% | 1011 hPa | 0 mm | - | 0 W/m² | - |
| 1777498204 | 26.67° C | 74% | 1010.8 hPa | 0 mm | - | 0 W/m² | - |
| 1777495804 | 26.67° C | 72% | 1010.8 hPa | 0 mm | - | 0 W/m² | - |
| 1777493104 | 27.22° C | 75% | 1011.4 hPa | 0 mm | - | 0 W/m² | - |
| 1777492804 | 27.22° C | 72% | 1011.6 hPa | 0 mm | - | 0 W/m² | - |
| 1777489203 | 27.78° C | 70% | 1012.4 hPa | 0 mm | - | 0 W/m² | - |
* Rain latest hour (hover to see other rain measurements)
** Current wind speed in m/s (hover to see current wind gust speed)